Location: Bellflower
(33.8817°N, 118.1170°W)
Time: 13:37:01
(UTC+00:00)

Cosmos 1603 - Pass Details

Date: 23 November 2020
Orbit: 831 x 859 km, 71.0° (Epoch: 21 January)

Event Time Altitude Azimuth Distance (km) Brightness Sun altitude
Exits shadow 13:16:17 - 343° (NNW) 3,190 6.4 -15.8°
Reaches altitude 10° 13:18:15 10° 346° (NNW) 2,447 5.8 -15.4°
Maximum altitude 13:23:49 63° 67° (ENE) 929 4.1 -14.3°
Drops below altitude 10° 13:29:22 10° 149° (SSE) 2,449 6.8 -13.2°
Sets 13:31:50 0° 152° (SSE) 3,384 7.5 -12.7°
